Temp
19 19 20 20 21 21 21 21 22 22 22 22 22 22 21 20 19 19 19 19 20 20 20 21 21 21 20 20 21 21 21 22 22 20 22 27 28 28 28 28 28 28 28 28 28 27 27 27 27 27 27 28 27 26 25 24 25 25 26 25 24 24 24 25 25 25 25 26 25 25 24 25 29 28 27 30 30 30 30 30 30 30 30 29 28 27 26 26
19 20 20 21 21 21 22 22 22 22 22 22 22 22 21 20 20 19 19 19 20 21 21 21 22 21 20 21 21 21 21 21 20 20 25 29 28 28 28 28 28 28 28 28 28 27 27 27 28 28 27 27 27 26 26 25 25 26 26 25 24 25 25 25 25 25 26 26 25 26 25 24 27 27 28 30 30 30 30 29 30 29 29 28 27 26 26 26
19 20 20 21 21 21 22 22 22 22 22 22 22 22 22 21 20 20 20 20 20 21 22 22 22 21 21 21 20 21 19 19 22 25 28 29 28 29 28 28 28 28 28 28 28 28 27 28 28 28 27 27 28 27 26 26 26 26 26 26 26 26 25 25 25 26 26 27 26 26 25 23 25 27 28 29 29 30 29 29 29 28 28 28 28 27 26 26
19 20 20 21 21 21 22 22 23 23 23 23 23 22 22 21 21 21 21 21 21 22 22 22 21 21 21 20 20 20 18 21 26 29 29 29 28 29 28 28 28 28 28 28 29 28 27 27 27 28 28 28 28 27 26 27 27 26 27 27 27 26 26 26 26 26 26 27 27 26 25 25 26 27 28 29 29 29 29 29 29 28 28 28 28 28 27 26
19 19 20 21 21 22 22 23 23 23 23 23 23 23 22 22 21 21 21 21 22 22 22 22 21 21 21 21 20 19 20 24 28 29 29 29 29 28 28 28 28 28 28 28 28 28 27 27 27 28 29 30 27 26 27 27 27 27 27 28 27 26 27 27 26 26 26 27 27 27 27 27 27 27 28 29 29 28 28 29 29 29 29 29 29 28 28 27
19 19 20 21 21 22 22 23 23 23 23 23 23 23 22 22 22 22 22 22 22 22 22 22 22 22 21 21 20 20 23 27 28 29 29 29 29 29 28 28 28 28 28 28 27 27 27 27 28 28 30 31 28 27 28 28 28 28 28 28 27 27 27 26 26 26 26 27 27 27 26 27 27 28 27 28 29 28 28 28 29 30 29 29 29 29 29 28
19 20 20 20 21 22 22 23 23 23 23 24 24 23 23 22 22 22 22 22 22 22 22 22 22 22 21 20 20 21 24 27 28 29 29 29 29 29 28 28 28 28 28 28 27 27 28 28 28 28 30 31 30 30 30 28 29 29 28 28 28 28 27 26 26 26 26 27 27 26 26 27 27 28 27 28 28 28 29 29 30 30 30 30 29 29 29 28
19 20 20 21 21 21 22 23 23 24 24 24 24 24 23 23 23 22 22 22 22 22 22 22 22 22 21 20 21 23 25 27 29 30 29 29 29 28 28 28 28 28 28 28 27 28 28 28 29 30 30 31 31 32 31 29 29 29 28 28 28 27 26 25 26 26 26 26 25 26 27 27 27 27 26 28 28 28 29 30 30 30 30 30 29 29 29 29
19 20 21 21 21 21 22 23 23 24 24 24 24 24 23 23 23 23 22 22 22 22 21 22 21 21 21 19 22 26 27 29 30 30 30 29 29 29 29 28 28 28 28 28 28 27 27 28 30 31 31 31 32 32 32 30 29 30 29 28 27 26 25 25 25 25 25 25 25 26 26 26 26 26 27 28 28 28 29 29 30 30 30 30 29 29 29 29
20 20 21 21 21 21 22 23 23 24 24 24 24 24 24 24 23 23 23 22 22 22 22 21 21 21 20 20 23 27 29 30 30 30 30 30 29 29 29 29 29 28 28 28 28 27 28 29 31 32 32 31 32 31 32 31 30 30 29 28 26 25 25 25 26 25 25 25 25 26 26 26 26 26 28 28 27 28 28 29 29 30 30 30 30 29 29 29
20 20 20 21 21 22 22 23 23 24 24 24 25 25 24 24 24 24 23 22 21 21 22 21 20 20 19 20 24 27 29 30 30 30 30 30 30 30 30 29 29 29 28 28 28 29 29 30 30 31 32 32 32 31 32 32 31 30 28 27 25 26 26 25 26 25 25 26 25 26 26 25 25 26 28 28 28 28 28 28 29 29 30 30 30 30 29 29
20 20 20 21 21 22 22 23 23 24 24 25 25 25 25 24 24 24 23 23 22 21 22 21 20 20 19 21 25 28 30 30 30 30 30 30 30 30 30 30 30 29 29 28 29 30 31 31 31 31 32 32 31 31 32 32 30 29 28 27 26 26 27 26 25 24 25 26 25 26 26 25 26 26 28 28 28 28 28 28 28 29 30 30 30 30 29 29
20 20 20 21 21 22 22 23 23 24 25 25 25 25 25 25 24 24 24 23 22 21 22 21 21 19 20 25 28 30 31 30 30 30 30 30 30 31 31 30 30 30 30 30 30 31 32 32 31 31 32 32 31 32 32 31 29 28 27 27 26 26 27 27 25 24 26 26 26 26 24 25 26 26 28 27 27 29 28 28 28 28 30 30 30 30 29 29
20 20 20 21 21 21 22 23 23 24 25 25 25 26 26 25 25 25 24 23 22 22 22 21 20 19 22 27 30 30 31 31 30 30 30 30 30 30 31 31 30 31 31 31 31 32 32 32 31 31 32 32 32 32 32 31 29 28 27 26 26 24 26 28 25 24 26 25 25 26 23 25 27 26 27 27 28 29 28 28 28 28 29 29 30 30 29 29
20 20 20 21 21 21 22 23 23 24 25 26 26 26 26 26 26 25 24 23 21 21 22 21 20 20 23 28 29 30 31 31 31 31 31 31 30 30 31 31 31 31 31 31 32 32 32 32 31 31 32 32 32 31 31 31 30 28 25 24 25 24 25 27 25 25 27 25 25 26 23 25 27 27 27 27 28 29 28 28 28 28 29 29 29 30 29 29
20 20 21 21 21 22 22 23 23 24 25 26 27 27 27 26 26 25 24 22 21 21 21 21 20 21 25 28 29 31 31 31 31 31 31 31 31 31 31 31 31 31 32 32 32 32 32 32 31 31 31 32 31 31 30 29 28 29 27 23 23 24 24 26 26 25 26 25 24 25 24 26 28 27 26 27 27 28 28 28 28 28 28 28 29 30 29 28
20 20 21 21 21 22 22 23 23 24 26 26 27 27 27 27 26 24 23 22 21 21 21 21 20 21 26 29 29 30 30 31 31 31 31 32 32 32 32 31 31 31 31 32 32 32 31 31 31 31 31 31 31 30 27 23 24 27 28 24 24 25 23 24 26 26 25 26 25 24 24 26 27 26 26 26 27 28 28 27 27 28 28 28 28 29 29 29
20 20 21 21 22 22 22 23 24 25 26 27 27 28 28 27 25 23 23 21 21 21 21 20 21 23 26 28 29 30 31 31 31 32 32 32 32 32 32 31 31 31 31 31 31 31 31 31 31 30 30 30 31 30 25 23 25 25 26 24 24 25 24 24 26 26 26 26 26 24 24 25 26 26 25 25 26 27 27 27 27 27 27 27 27 29 29 29
20 20 21 21 22 22 23 23 24 25 26 27 28 28 28 26 24 23 21 21 23 25 25 24 24 27 28 29 30 30 32 32 32 32 32 32 32 32 32 32 32 31 30 30 30 30 31 30 30 28 28 29 30 30 27 28 29 28 28 26 24 24 24 26 27 27 26 26 26 25 24 25 26 25 25 25 26 27 26 26 26 27 27 27 27 28 28 28
20 20 21 21 22 23 23 23 24 25 26 27 28 28 28 27 26 26 23 23 26 27 29 28 27 28 29 30 31 31 32 33 32 32 32 32 32 32 32 32 31 31 30 30 30 30 31 29 28 28 29 30 31 30 30 31 31 31 30 28 26 25 25 27 28 27 27 26 25 25 25 26 26 25 25 25 25 26 25 26 26 26 27 27 27 27 26 27
20 21 21 21 22 23 24 24 24 25 26 26 26 27 27 27 27 28 27 28 28 27 28 29 28 28 29 31 32 32 32 32 32 32 32 33 32 32 31 31 31 30 30 31 30 31 31 28 28 30 31 31 31 31 31 31 32 33 31 28 26 26 26 28 28 26 27 27 26 26 25 26 26 25 25 25 25 25 25 26 26 26 27 27 27 26 25 26
20 21 21 21 22 23 24 25 25 26 26 26 26 25 26 27 28 29 29 29 29 29 29 29 29 29 30 31 33 33 32 32 32 32 32 32 32 31 31 31 30 30 30 30 30 30 29 27 30 32 31 31 31 31 32 32 33 33 31 28 25 26 27 27 28 26 26 27 27 26 25 25 26 25 25 25 25 25 25 25 26 26 27 27 26 25 24 26
20 21 21 22 22 24 25 25 26 27 26 26 25 25 26 28 29 29 29 28 29 30 30 30 30 30 31 32 33 33 32 32 32 32 32 32 31 31 31 31 30 30 30 30 30 28 26 28 31 31 31 32 32 32 33 33 33 33 31 27 25 27 26 25 26 26 26 27 27 27 25 25 26 25 25 25 25 25 25 25 26 26 26 26 26 25 24 26
21 21 21 22 22 24 25 26 26 26 26 26 26 27 28 29 29 29 29 28 28 29 30 31 32 32 32 33 34 33 32 32 32 32 32 32 32 32 31 31 30 30 30 30 30 28 27 31 33 32 33 34 33 33 34 32 30 32 32 29 27 28 28 27 27 27 26 27 28 26 24 24 25 25 25 25 25 26 25 25 26 26 26 26 26 25 24 25
21 21 21 22 22 24 25 26 26 26 26 27 28 29 29 29 29 29 29 27 27 29 31 32 32 33 34 34 33 33 33 32 33 32 33 33 33 32 31 32 31 30 31 31 30 30 31 33 33 33 33 34 33 32 33 31 28 28 32 32 30 30 30 28 28 26 24 23 27 27 22 22 24 24 25 25 25 25 25 25 25 25 25 25 26 26 24 24
21 21 22 22 22 23 26 27 26 25 26 27 28 29 29 29 29 29 29 26 24 29 32 32 32 33 34 33 33 33 32 32 33 33 33 33 33 33 32 32 32 31 32 33 32 31 33 34 34 33 33 33 33 32 33 32 27 25 30 33 32 32 30 28 27 25 22 22 27 28 23 21 22 24 25 25 25 25 25 25 25 25 25 25 26 26 25 26
21 21 22 22 22 23 25 26 24 24 26 27 28 29 29 30 29 29 28 23 23 29 31 31 32 33 33 33 34 32 30 31 33 33 34 34 34 33 32 31 32 31 33 33 29 30 33 33 33 33 33 33 31 31 32 33 28 26 31 33 33 33 30 28 27 25 24 25 26 27 26 22 21 23 25 25 24 25 25 25 25 25 25 25 26 26 26 27
21 22 22 22 23 22 22 22 21 22 26 27 28 28 29 29 29 29 26 21 24 31 32 32 32 33 33 33 33 33 31 32 32 33 34 34 33 33 31 31 32 31 33 31 26 29 34 33 33 34 32 31 31 31 33 33 30 30 33 33 33 34 32 29 27 25 27 26 23 24 26 23 21 23 25 25 24 24 25 25 25 25 25 25 26 26 26 27
21 22 22 22 23 22 22 21 20 23 26 27 28 28 29 29 29 29 24 21 27 31 32 32 32 32 33 33 32 33 33 32 32 33 34 33 33 33 32 32 32 31 32 32 29 32 34 33 34 34 32 31 32 33 34 33 33 33 33 33 33 33 32 31 29 26 26 24 22 23 25 23 21 22 23 24 23 24 25 25 25 25 25 25 25 26 26 27
22 22 22 22 22 22 21 21 23 26 27 27 27 29 29 29 28 25 21 23 28 31 31 31 31 32 32 32 32 33 33 32 33 33 33 33 33 33 33 33 33 32 32 32 32 32 33 34 34 34 33 33 33 34 33 33 34 33 33 33 32 32 32 31 29 27 24 22 23 24 24 23 22 22 22 23 24 25 25 25 25 25 25 25 25 26 26 27
22 22 22 22 23 21 20 22 26 27 27 27 28 29 29 28 26 22 21 27 29 30 31 31 31 33 32 31 32 32 32 32 33 33 32 33 32 32 32 32 31 31 30 30 31 32 33 33 33 34 34 34 33 33 33 33 33 33 33 31 28 27 27 26 25 25 23 22 23 24 25 24 21 22 24 25 25 26 26 26 26 26 25 25 25 26 26 27
22 23 23 23 23 22 22 25 27 26 26 27 28 29 28 26 24 21 24 28 27 28 31 31 31 33 32 32 31 32 32 32 33 33 32 32 31 31 31 30 30 27 24 25 28 29 30 32 33 34 34 34 33 31 31 32 33 33 31 27 24 22 23 23 22 23 22 22 24 25 25 23 21 23 25 26 27 26 26 26 26 26 26 26 26 26 26 26
22 23 24 24 23 24 25 26 26 25 26 27 27 28 27 23 22 23 25 27 26 29 33 32 33 33 32 32 32 32 32 32 33 32 32 32 31 31 30 31 32 28 25 25 25 25 26 30 33 33 32 33 33 30 28 29 31 31 28 25 23 22 21 21 21 22 22 22 24 26 25 22 21 23 24 24 25 25 25 25 26 26 25 26 26 26 26 26
22 23 24 24 25 26 26 26 26 25 26 26 27 27 25 21 22 25 26 27 29 31 33 33 33 33 32 32 32 33 32 31 33 32 32 32 30 30 30 31 32 31 29 27 25 24 23 25 30 32 31 33 34 32 30 30 30 30 30 28 24 22 22 21 21 21 22 22 23 24 23 21 21 22 22 22 23 23 24 24 25 26 25 25 26 26 26 26
23 24 24 24 25 27 27 26 26 25 24 26 27 25 22 21 23 25 26 29 31 31 32 34 33 32 31 32 33 34 32 31 33 33 32 32 30 30 31 31 32 32 30 26 25 26 23 23 30 32 32 33 33 33 34 32 29 29 31 28 24 25 24 22 22 22 22 22 22 22 22 21 22 23 22 23 23 23 23 24 25 25 24 24 25 25 25 26
23 24 24 24 25 27 28 26 26 25 24 26 26 23 23 23 25 26 28 30 30 30 31 31 32 30 27 30 32 33 33 32 33 32 31 32 31 31 32 32 32 32 31 27 26 26 23 24 31 33 32 34 33 33 35 32 28 28 28 25 26 29 28 23 22 23 22 21 21 21 21 22 23 23 24 24 24 23 23 23 24 24 24 24 24 23 23 24
22 22 22 23 25 27 27 27 27 25 25 26 25 23 25 26 28 28 29 30 30 31 30 27 29 28 25 26 29 32 32 32 32 30 29 30 30 31 32 32 32 32 32 30 29 28 25 24 30 32 31 33 33 33 34 33 31 29 26 26 29 29 28 25 22 22 22 21 21 21 21 21 21 22 24 25 25 24 23 23 23 23 23 23 23 23 22 22
20 19 20 23 26 28 27 26 26 25 25 26 24 24 26 27 29 29 29 30 29 31 30 26 28 30 27 25 27 31 31 29 30 29 28 28 28 30 32 32 32 32 33 32 30 30 28 24 27 32 31 32 34 33 31 31 33 30 28 30 29 25 24 23 22 21 21 21 21 21 21 21 20 22 23 24 25 25 24 23 23 23 23 23 23 22 22 22
18 18 23 27 28 28 27 26 26 25 25 25 24 25 26 27 28 29 29 30 30 30 29 28 30 30 29 28 28 31 31 29 30 30 27 28 28 29 32 32 32 32 32 32 30 29 30 25 24 30 32 31 32 30 27 28 30 30 30 30 29 25 24 23 22 22 21 21 21 21 21 21 21 22 23 24 25 25 24 23 23 23 23 22 22 22 22 21
17 20 25 28 28 28 27 26 26 25 25 25 24 25 27 27 28 29 30 30 30 30 30 31 31 29 30 31 30 30 31 31 31 30 28 29 29 29 32 32 32 31 30 31 30 29 30 26 23 27 31 29 28 28 28 28 29 28 27 26 26 26 25 24 24 23 22 21 21 21 21 21 23 23 23 24 24 23 22 22 22 22 22 22 22 22 21 21
16 21 25 27 27 27 27 26 25 25 25 25 25 26 27 27 28 29 30 30 30 31 31 32 31 30 31 31 30 31 32 31 31 30 29 30 29 28 31 32 32 32 30 31 30 29 29 26 23 24 26 25 27 30 31 31 30 29 27 26 26 26 24 23 22 22 23 22 21 21 21 21 24 23 23 24 23 22 22 22 22 22 22 22 21 21 21 21
17 23 25 27 27 26 26 26 25 26 25 26 26 27 27 28 28 29 30 30 30 31 32 32 32 32 32 31 31 32 32 31 31 30 29 30 30 30 31 32 31 32 31 30 30 29 29 28 24 23 24 26 28 30 30 31 31 31 30 28 28 27 24 22 21 22 22 22 22 22 21 22 24 23 23 23 23 23 23 22 22 21 21 21 20 21 21 20
19 21 24 28 27 26 26 25 25 26 26 26 27 28 28 28 28 29 29 30 30 32 32 32 32 32 32 32 32 32 31 30 30 30 29 30 31 31 32 32 32 32 31 30 29 29 29 27 24 22 25 28 29 30 31 32 31 30 30 29 28 27 26 25 24 23 22 22 22 22 20 22 24 23 23 23 23 23 23 22 22 21 20 20 20 20 20 20
16 16 21 26 27 26 25 25 25 25 26 27 27 28 28 29 29 29 29 30 30 32 32 32 32 32 32 32 32 32 31 29 29 30 30 30 31 31 32 33 32 32 31 30 30 29 27 26 24 22 22 24 26 27 28 29 29 28 29 30 29 29 28 27 26 24 23 22 22 21 21 22 24 23 23 23 23 23 22 22 21 21 20 20 20 20 20 20
15 17 20 23 26 26 26 26 26 26 26 26 26 27 27 28 29 30 30 30 31 32 32 32 32 32 32 32 32 32 32 30 29 30 31 31 31 31 31 32 32 32 31 31 31 30 28 26 25 22 21 21 22 22 24 25 27 28 29 29 29 29 28 26 24 23 22 22 22 21 21 22 23 23 23 23 23 23 22 21 21 21 20 20 19 19 19 20
18 20 21 22 24 25 25 26 26 25 25 25 25 26 27 28 29 30 30 30 31 32 32 32 32 32 32 32 31 32 32 32 31 31 31 31 31 31 32 32 32 31 31 31 31 31 29 27 27 24 22 23 22 24 26 26 25 25 27 28 28 29 29 27 23 22 22 22 22 22 22 22 23 23 23 23 23 22 21 20 20 21 20 20 19 19 19 20
17 20 21 20 21 23 23 24 24 24 24 25 25 26 27 27 28 29 30 31 31 32 32 32 32 32 31 32 31 30 31 32 31 31 32 32 31 31 31 31 31 31 31 31 31 31 28 26 27 26 25 26 26 26 28 27 26 25 26 27 28 28 28 26 23 23 23 22 21 22 23 22 22 24 24 23 22 22 21 20 20 21 20 20 19 19 19 19
18 20 21 20 20 21 21 21 22 23 24 24 25 26 27 27 28 28 30 31 32 32 31 31 31 31 31 31 30 29 30 30 30 31 31 31 31 31 30 30 31 30 31 31 31 31 28 25 27 27 26 28 29 28 29 29 28 28 28 27 28 28 27 25 24 25 25 23 22 23 23 23 23 24 23 22 22 21 21 20 20 20 20 20 20 19 19 19
18 19 19 20 20 20 20 21 22 23 23 24 24 26 27 27 28 29 30 30 30 31 31 30 31 32 32 32 30 30 30 28 27 29 31 31 31 30 29 30 30 30 30 30 30 30 28 26 28 28 26 27 29 29 29 29 28 27 27 28 29 28 27 27 26 27 26 24 23 24 23 23 23 23 22 22 21 21 21 20 20 20 20 20 19 19 19 19
17 17 17 18 18 19 20 21 22 22 23 23 24 26 27 27 27 28 29 30 29 30 30 30 30 31 31 31 31 31 31 30 29 30 31 31 30 30 30 30 30 30 30 29 29 29 28 26 28 29 25 25 28 29 29 28 27 26 26 27 28 28 27 27 26 26 26 23 23 23 23 22 22 21 21 21 21 21 20 20 20 20 20 20 19 19 19 19
14 16 17 16 17 19 20 21 21 21 22 23 24 25 26 26 26 26 27 29 30 30 30 29 29 29 30 30 30 30 30 31 31 31 32 32 31 31 31 31 31 30 30 29 29 29 28 27 28 27 23 23 27 28 27 27 27 25 25 26 27 26 25 25 25 26 25 23 22 21 22 23 22 21 21 21 20 20 19 19 19 19 19 19 19 19 19 19
13 14 15 16 17 19 20 20 21 21 22 23 24 24 25 26 26 26 26 28 30 29 29 29 29 29 29 29 29 29 29 30 30 31 31 32 32 32 32 31 31 31 30 29 29 29 29 28 26 25 22 22 26 27 26 26 24 23 24 27 27 26 25 25 25 26 26 25 23 23 23 23 22 21 21 21 20 19 19 19 19 19 19 19 19 19 19 19
Height
808 807 806 805 803 802 801 800 799 797 796 795 794 793 791 790 789 787 786 785 784 783 782 782 781 781 780 780 779 778 777 776 775 775 774 770 769 769 770 770 771 771 772 772 773 774 775 776 775 775 779 781 782 783 784 784 782 789 801 810 816 817 813 808 808 806 803 803 801 798 798 799 793 791 784 777 781 783 784 784 782 781 779 781 783 788 793 797
808 807 805 804 803 802 801 799 798 797 796 795 793 792 791 790 788 787 785 784 783 782 782 781 781 781 779 779 778 777 776 774 774 773 770 768 768 768 768 769 770 770 770 771 772 773 775 776 774 776 781 783 781 781 785 784 784 792 803 811 814 811 805 800 800 800 799 800 801 797 797 799 795 793 785 784 791 785 788 790 786 788 787 785 786 790 794 796
808 807 805 804 803 801 800 799 798 797 795 794 793 792 790 789 787 786 785 784 783 782 781 780 780 779 779 779 777 777 776 774 774 771 767 766 767 767 767 768 769 769 769 770 771 771 773 773 773 777 782 784 780 782 787 785 786 791 798 811 809 800 800 797 796 796 794 794 800 800 798 801 796 789 785 789 793 788 791 792 791 795 792 790 789 790 794 796
808 807 805 804 803 801 800 798 797 796 795 794 793 791 790 788 787 786 784 784 782 782 781 780 780 779 779 778 777 777 774 776 776 768 765 766 766 766 766 767 767 768 769 769 770 770 770 770 772 775 780 785 781 782 787 785 786 789 794 803 799 794 798 796 792 792 791 790 796 799 800 801 792 786 787 790 796 796 792 787 787 791 790 789 789 790 793 796
808 807 805 804 802 801 799 798 797 795 794 793 792 791 789 788 786 785 784 783 782 781 780 780 780 779 779 777 778 775 776 786 778 764 765 765 764 765 765 766 767 767 768 769 769 769 770 770 771 774 777 782 785 787 787 780 780 789 790 790 790 791 794 791 789 790 789 790 792 796 798 795 788 787 789 790 798 800 791 784 781 782 784 786 787 789 791 794
809 807 805 804 802 801 799 797 796 795 794 792 791 790 789 788 785 784 784 783 782 781 780 780 779 779 778 777 778 775 779 788 773 762 765 763 764 764 764 765 765 767 767 768 768 768 770 769 773 778 777 779 786 787 783 776 777 790 790 784 786 787 789 788 786 787 787 789 792 794 793 789 790 792 789 789 794 792 784 782 780 779 781 783 785 788 790 793
808 807 805 804 802 800 798 797 796 794 793 792 791 789 789 787 785 784 783 783 782 781 780 780 779 779 778 777 777 776 779 778 764 763 765 762 764 763 763 765 764 767 766 767 767 769 770 772 777 779 779 781 783 780 776 775 777 787 791 785 785 785 785 785 784 786 786 788 790 789 790 790 793 794 790 790 789 785 781 779 779 779 779 782 785 788 790 791
808 807 805 803 801 800 798 797 795 794 793 791 790 789 788 787 786 784 782 782 781 781 781 779 779 778 778 777 777 779 779 771 761 763 763 762 763 762 764 764 764 766 765 766 766 768 771 775 776 774 780 780 776 775 769 776 783 784 787 785 784 786 785 784 784 786 786 787 788 788 792 793 792 791 792 792 787 783 780 779 779 779 780 783 786 788 789 790
808 806 804 803 801 799 798 796 794 793 792 790 789 788 788 786 785 784 782 781 781 781 780 779 779 778 778 777 777 782 776 764 761 763 762 762 762 762 763 763 765 765 765 766 764 768 772 773 771 768 776 775 771 772 766 778 788 779 780 783 785 788 786 784 785 786 787 787 788 791 795 794 788 789 792 788 785 783 780 780 780 781 783 785 786 787 788 789
808 805 804 802 800 799 797 795 794 792 791 790 788 787 787 786 785 784 781 781 780 780 779 780 779 777 779 776 779 784 769 760 762 762 761 762 762 762 763 763 764 764 764 764 763 767 769 768 765 760 767 770 769 771 768 775 778 772 777 783 786 788 785 784 786 787 788 787 788 792 798 794 788 792 795 786 782 782 782 783 782 783 785 784 785 786 786 788
807 805 804 802 800 798 796 795 793 791 790 789 788 787 786 785 784 783 781 780 780 780 779 779 778 778 778 776 782 780 763 759 762 760 761 761 761 762 762 763 763 763 764 763 763 763 764 763 759 760 767 769 768 769 768 766 767 771 779 786 789 788 785 785 787 788 788 789 787 789 796 796 792 795 794 785 780 782 786 786 784 785 785 783 784 785 785 786
807 805 803 801 799 797 795 794 792 790 789 787 787 786 785 785 783 783 781 780 779 779 779 778 778 778 777 778 778 770 759 760 761 760 762 760 760 761 760 762 761 762 762 761 762 760 761 759 757 765 768 766 770 774 770 763 767 775 778 790 795 789 788 787 788 789 788 790 786 788 800 802 799 795 787 782 780 781 786 788 787 786 784 783 783 784 785 785
806 804 803 801 799 797 795 793 791 789 787 786 786 784 784 783 782 781 780 780 779 779 779 778 778 776 778 778 769 761 760 760 760 760 760 759 760 759 759 760 760 760 761 760 760 759 760 758 758 764 763 765 772 769 764 764 771 780 783 791 798 800 796 787 788 790 789 791 784 790 809 806 797 792 783 781 780 781 787 788 789 787 784 784 782 783 785 784
806 804 802 800 798 796 794 792 790 788 786 785 784 783 783 781 781 780 779 779 778 778 778 778 778 777 778 774 762 759 761 759 760 760 758 758 758 759 759 758 759 759 760 759 759 759 758 756 757 760 760 763 766 760 765 773 778 787 793 794 800 808 801 787 789 792 792 792 784 793 813 805 794 790 782 781 780 781 787 788 789 788 785 785 782 783 785 784
805 803 801 800 797 795 793 791 789 786 785 783 782 781 780 779 779 777 778 778 777 778 777 777 778 776 779 773 760 758 760 758 759 757 757 758 757 758 757 757 758 758 759 759 758 758 757 756 759 765 764 759 761 769 778 782 783 789 800 807 808 805 799 791 789 790 793 793 787 796 811 803 793 788 781 779 780 781 786 787 788 789 786 786 784 783 785 784
805 803 801 799 796 794 792 790 788 785 783 781 780 780 778 777 776 776 776 775 776 777 776 778 777 778 782 774 760 758 759 757 757 756 756 756 756 756 755 755 756 757 758 757 757 757 757 759 761 764 766 765 770 780 785 787 790 789 795 809 811 805 806 801 790 786 789 794 794 799 808 803 792 786 781 780 780 782 786 787 787 788 787 787 786 784 785 785
804 802 800 798 796 794 791 789 787 784 782 781 779 777 776 774 772 773 774 774 777 776 776 778 776 779 779 768 763 762 757 755 755 755 755 754 754 754 754 755 755 756 757 756 758 758 759 763 766 767 768 773 776 781 794 803 800 792 791 802 804 801 807 805 794 787 786 793 797 801 806 802 793 788 785 782 781 783 787 788 787 787 787 787 786 785 786 786
803 801 799 797 795 793 790 788 785 783 781 779 778 776 774 773 772 772 772 773 775 775 778 778 778 786 781 767 764 761 753 753 754 753 753 753 753 753 753 754 754 756 760 762 762 762 766 767 770 777 778 778 778 784 801 803 794 791 791 797 801 801 804 802 794 787 786 793 796 802 807 802 795 791 788 785 783 785 787 788 788 787 788 790 787 785 786 787
803 801 798 796 794 792 790 787 784 782 779 778 778 775 772 771 771 771 772 774 776 779 781 778 777 783 780 765 758 754 750 751 752 752 752 752 753 752 752 753 754 759 768 774 771 767 770 774 778 786 787 783 781 784 790 786 782 784 783 787 796 801 801 795 789 782 783 794 798 801 805 799 796 793 790 789 785 786 788 787 788 788 788 791 790 787 788 789
802 800 797 795 793 790 789 786 784 782 779 777 777 774 775 777 779 778 774 772 772 772 771 770 769 770 767 759 753 752 752 751 752 752 751 752 752 752 753 754 758 764 771 776 776 769 769 783 789 787 785 780 776 776 776 775 776 777 778 783 789 794 794 788 786 781 779 792 799 797 800 797 794 793 791 790 789 789 791 790 790 789 789 791 790 789 791 791
802 800 797 794 792 789 787 785 783 781 779 778 777 777 780 783 788 786 777 769 762 759 763 760 760 763 758 753 751 750 753 755 753 750 751 751 750 758 760 759 768 775 773 772 773 768 772 789 788 777 775 772 770 770 770 773 774 771 774 782 789 790 788 782 783 783 779 789 797 796 800 798 793 794 792 790 792 793 791 791 791 790 789 790 790 793 795 793
801 799 796 793 790 788 786 784 782 780 779 778 777 779 779 778 780 779 776 776 763 752 757 755 755 759 751 748 748 746 754 761 759 752 749 750 753 762 764 763 774 778 772 772 777 779 785 790 778 766 767 767 768 768 768 770 770 770 772 779 787 788 787 785 783 784 782 788 795 796 801 800 794 794 793 791 792 792 790 789 789 789 789 790 792 796 798 796
801 797 795 792 789 787 784 783 781 779 779 778 778 779 777 774 774 772 774 782 773 754 752 754 755 757 752 749 745 746 758 763 764 757 747 750 756 759 764 769 775 776 774 777 781 788 793 783 767 761 763 764 767 765 764 767 767 770 774 778 783 784 787 791 789 788 786 787 791 795 800 802 798 797 795 792 790 789 789 787 787 787 788 789 791 795 799 797
800 796 795 791 788 786 783 781 779 778 779 778 778 776 775 773 773 773 773 780 779 760 748 747 748 751 751 747 742 748 758 757 759 756 745 750 756 756 762 768 773 777 775 773 777 784 784 768 756 758 759 759 765 765 765 771 773 771 771 775 780 780 780 784 786 788 790 791 788 794 809 809 802 803 800 794 791 790 790 789 788 788 787 788 789 792 797 796
799 797 794 790 788 784 781 780 778 778 778 777 777 774 775 774 771 772 775 785 787 766 749 745 745 746 743 742 743 745 752 753 751 748 742 744 751 757 761 760 767 777 772 768 774 779 773 758 752 758 759 758 765 769 766 771 778 777 771 770 773 774 775 780 785 792 805 809 792 794 820 822 807 806 804 798 796 795 793 792 791 790 788 788 789 791 795 795
799 796 792 790 787 782 780 778 778 779 777 775 775 773 774 773 771 770 777 796 798 772 758 754 750 748 742 744 744 743 759 761 744 739 741 742 743 750 761 761 762 770 765 761 767 769 763 753 752 758 761 762 767 770 765 767 780 785 773 765 766 768 774 783 787 794 810 812 790 786 810 822 815 808 802 799 799 797 795 794 793 791 789 788 788 790 791 791
798 795 792 790 787 784 782 780 781 780 778 777 774 773 773 770 770 768 781 813 807 772 762 759 752 749 743 743 740 751 773 765 744 741 739 741 741 743 761 767 764 765 757 759 772 769 759 757 758 760 763 767 772 773 765 763 779 784 767 760 763 766 775 783 785 791 796 793 789 787 794 813 823 811 799 799 802 801 797 796 794 792 790 788 787 787 788 788
797 794 792 789 787 786 783 782 782 779 778 777 772 773 772 769 770 770 795 827 803 763 759 756 747 743 739 739 740 752 762 755 757 753 733 736 742 745 762 766 764 766 755 764 782 770 757 761 762 760 767 771 771 769 760 759 772 771 759 758 759 760 770 776 782 789 785 786 799 796 790 810 826 812 799 800 805 806 801 796 794 792 790 789 786 785 785 784
796 793 791 788 786 785 783 782 781 778 778 774 772 773 769 769 771 777 808 823 787 757 756 751 747 745 743 745 747 750 750 750 760 751 733 739 741 743 759 757 756 764 756 760 774 765 754 754 752 756 767 769 764 760 754 756 764 758 752 757 757 759 764 770 779 783 783 791 800 794 790 808 824 816 807 808 809 807 801 795 793 791 789 788 786 784 783 782
794 792 790 786 784 783 782 781 778 777 776 773 774 772 768 772 779 801 828 812 776 762 755 752 754 750 750 758 757 753 753 754 752 744 742 746 742 742 749 746 749 761 760 759 763 760 751 745 745 751 757 758 756 754 751 753 755 752 755 761 764 766 766 770 776 776 790 803 793 787 788 798 816 819 811 809 805 799 797 795 793 790 789 787 785 784 782 781
792 790 788 785 783 782 781 779 776 776 775 774 774 769 772 781 792 821 827 789 769 768 758 758 759 751 755 765 764 758 757 756 749 750 755 752 752 755 755 756 759 767 773 771 766 760 755 753 753 748 745 748 753 755 753 751 751 755 764 770 777 782 777 781 784 784 805 814 793 784 785 792 814 817 805 800 794 790 791 792 792 790 789 786 784 782 780 780
789 788 786 783 781 780 779 777 775 776 775 774 773 771 781 798 809 818 803 774 776 775 761 763 761 754 758 762 764 760 759 759 752 753 759 759 763 763 763 769 769 779 790 784 776 770 764 761 755 748 744 745 756 765 762 757 756 762 769 776 792 804 803 808 810 807 815 811 791 785 786 800 817 809 797 795 790 788 787 787 788 788 787 785 783 782 779 778
787 784 782 780 778 776 775 775 774 776 774 773 775 776 791 814 816 802 789 781 780 767 756 757 754 754 758 761 763 758 757 760 754 754 756 758 766 765 763 763 762 777 788 783 782 781 777 768 756 756 755 746 754 769 774 771 767 770 774 781 799 816 825 833 828 822 821 807 790 783 791 814 823 808 803 803 797 792 788 786 786 785 786 785 782 781 778 777
784 781 779 776 774 772 771 773 773 774 774 773 778 786 803 819 808 789 786 782 770 758 755 755 753 755 757 759 759 753 759 761 752 754 758 759 769 770 767 764 760 767 773 778 783 784 793 790 769 764 762 751 752 760 765 768 769 771 771 776 792 803 818 831 828 826 825 811 798 795 806 828 831 818 813 809 803 798 792 788 786 783 785 784 781 781 779 777
781 779 776 771 769 769 768 770 771 773 774 774 784 798 809 811 798 787 785 775 765 762 757 751 754 761 762 759 754 748 755 760 752 754 759 761 768 768 766 765 760 761 768 781 785 780 791 792 767 756 753 748 752 750 748 760 773 773 767 776 789 788 795 810 813 812 813 813 815 817 823 827 821 814 809 804 802 798 792 790 788 786 785 784 784 783 780 778
778 774 772 769 767 766 767 768 769 771 773 778 793 804 803 796 787 783 776 766 766 768 766 761 759 767 771 765 759 752 750 754 755 758 761 760 764 764 762 761 756 757 763 776 783 781 789 786 762 754 752 747 750 748 743 757 774 774 773 782 783 774 780 800 810 804 805 822 831 829 830 826 815 810 805 801 801 798 794 793 791 790 788 786 787 785 783 781
776 772 770 765 763 764 766 767 768 770 773 782 797 800 792 783 775 772 768 762 764 764 771 776 768 768 775 771 765 758 753 755 757 762 766 764 765 763 760 758 753 753 755 763 773 776 783 785 766 760 764 753 743 745 746 749 759 772 783 782 774 773 779 793 812 818 821 835 837 831 836 836 829 821 807 800 802 799 796 795 794 792 789 788 787 785 784 782
777 774 769 761 759 761 763 766 767 769 775 786 796 793 786 779 770 765 764 762 764 764 772 780 769 764 771 774 770 760 758 764 762 765 769 769 768 762 758 758 754 751 749 753 767 770 774 786 775 763 768 759 744 750 761 756 753 764 773 770 774 793 799 799 814 826 833 843 844 839 839 836 832 824 809 805 804 799 796 797 796 794 791 789 788 785 784 782
779 777 770 760 758 760 763 766 766 770 780 791 798 792 782 776 768 761 761 762 764 768 772 772 765 764 767 769 771 763 760 765 763 765 769 769 770 762 755 757 757 755 750 751 768 772 771 788 788 768 762 761 757 765 777 774 764 762 766 769 776 791 800 802 808 816 827 840 846 845 842 832 823 817 810 806 802 798 800 800 798 795 792 790 788 785 784 783
781 781 773 760 760 763 763 766 769 776 785 790 792 787 778 774 766 758 758 760 762 764 767 765 762 767 767 763 766 763 760 761 760 763 766 765 768 763 754 753 756 758 755 753 765 770 771 788 795 778 767 770 775 776 776 777 775 774 779 784 786 786 790 797 803 805 815 831 839 844 844 828 811 807 807 802 799 800 802 801 798 796 792 789 787 785 784 783
784 785 775 762 763 765 764 771 776 781 786 786 784 781 776 772 766 760 756 755 757 756 754 756 758 762 763 763 764 760 759 761 759 762 766 764 767 768 757 750 752 756 757 760 766 770 775 785 793 789 784 783 781 771 765 767 770 775 780 785 787 787 793 808 818 809 805 818 827 833 840 826 804 801 803 799 800 800 798 798 798 795 792 789 787 784 784 783
788 788 775 764 767 767 767 778 780 779 782 782 778 774 771 768 765 763 757 753 755 751 745 749 753 755 758 759 759 757 758 761 760 763 766 763 763 764 755 748 749 750 757 768 771 766 770 781 790 793 790 786 777 766 761 762 761 765 772 777 782 785 791 810 824 816 806 811 813 818 831 822 800 797 800 798 798 797 796 797 797 795 793 790 787 784 783 782
791 788 771 763 767 767 773 783 782 780 780 775 770 767 766 766 765 763 759 756 756 752 748 750 750 751 754 753 754 756 757 760 762 763 765 763 758 754 748 744 746 750 758 770 772 765 769 782 792 796 790 780 771 764 760 759 762 770 773 774 780 783 785 793 802 804 807 813 812 820 833 820 799 796 798 797 796 796 796 796 796 795 793 789 788 785 783 781
795 790 774 765 765 767 777 785 784 783 780 773 770 768 763 762 762 762 761 758 755 753 752 751 747 748 749 747 751 754 756 762 764 761 761 763 757 748 744 743 745 753 759 765 767 766 775 787 794 802 806 798 789 784 778 771 772 779 779 775 777 779 782 788 791 796 807 811 810 822 832 818 801 798 798 796 796 796 797 796 795 794 792 790 788 785 783 781
795 789 778 769 764 767 775 777 777 781 779 776 776 772 767 763 757 756 757 754 750 748 751 749 744 744 745 746 750 752 752 757 763 760 759 761 757 749 747 746 746 752 755 755 756 760 774 785 789 803 818 819 815 809 798 788 783 781 779 777 777 777 781 788 794 803 813 811 807 815 822 813 802 799 799 797 797 797 798 797 795 793 791 790 788 786 783 780
797 792 785 778 770 769 773 771 772 778 779 780 779 772 769 767 757 749 750 750 745 741 744 744 741 744 747 749 754 756 751 751 755 759 759 760 758 751 747 746 746 750 752 751 751 759 774 782 783 792 803 805 805 798 788 787 789 787 783 780 779 779 779 784 796 805 807 808 811 811 809 810 808 803 800 799 798 798 800 798 795 792 790 789 788 787 784 780
801 797 793 791 785 780 779 775 776 780 779 781 782 773 767 767 761 753 748 747 742 738 741 742 741 748 752 752 757 759 755 752 754 756 757 756 755 751 748 747 749 750 750 750 752 760 777 785 782 785 788 786 787 785 780 784 787 785 783 780 779 779 779 784 795 799 799 808 817 809 802 808 809 802 800 801 799 799 800 798 795 792 790 789 788 787 784 782
800 795 791 794 795 793 791 785 781 781 778 778 778 772 768 767 765 761 754 747 740 737 744 748 745 747 749 750 757 761 759 759 759 757 756 755 755 757 757 754 752 750 750 754 754 759 777 786 781 780 783 780 779 780 777 778 781 779 779 779 777 778 781 785 790 791 791 802 809 803 802 806 803 800 801 799 797 798 798 796 793 791 789 788 788 788 786 785
798 797 792 792 795 796 794 787 783 782 780 778 777 772 768 767 765 760 754 751 748 741 744 753 750 744 744 745 751 759 761 763 764 760 756 755 756 760 764 763 757 752 753 758 758 759 773 783 778 777 782 779 777 777 775 777 780 781 780 779 776 778 780 782 785 785 787 795 799 798 802 804 800 799 799 796 796 796 795 794 792 791 790 788 788 789 788 786
802 803 799 797 797 793 789 785 783 785 781 779 778 772 766 766 765 760 752 752 756 749 744 752 752 745 743 743 747 754 754 753 758 756 752 754 757 758 762 763 759 755 757 761 762 762 770 780 778 776 784 784 778 776 777 779 782 783 783 780 777 779 783 783 784 786 788 798 805 803 805 806 800 797 796 795 796 796 796 797 795 792 791 790 789 790 788 787
804 803 801 803 801 792 788 786 784 787 785 780 778 773 767 766 765 763 756 747 749 751 748 750 751 746 745 745 748 751 747 744 748 747 742 746 749 750 752 752 752 756 761 763 764 765 770 778 777 778 791 792 780 779 783 779 779 784 786 782 779 783 788 789 787 785 787 799 809 808 805 803 798 796 796 795 796 799 801 799 797 795 793 791 791 790 789 787
804 802 799 803 802 793 790 789 786 789 787 779 776 773 770 766 760 762 764 751 743 745 746 745 746 748 750 753 753 749 743 740 740 737 734 735 735 736 740 743 744 750 758 762 765 765 768 775 778 783 795 794 783 782 784 782 790 797 788 779 781 784 787 789 787 785 783 789 799 800 796 794 794 796 797 796 799 802 802 799 798 796 793 792 792 790 789 787
Wind_Speed
15 15 15 15 15 16 17 18 18 19 20 21 21 21 21 21 21 19 18 16 14 12 10 9 8 7 7 8 10 10 11 6 2 3 5 5 8 6 4 4 4 5 5 5 6 5 3 5 10 12 6 4 4 3 4 4 1 2 2 2 1 1 1 2 3 3 2 1 2 0 2 2 2 6 5 1 3 6 11 8 9 7 8 14 21 31 31 28
16 16 16 16 15 16 17 17 18 19 20 21 21 22 21 21 21 20 18 16 14 11 8 8 7 7 6 7 8 8 10 6 3 4 8 8 9 8 7 7 8 7 7 7 9 7 4 4 7 7 3 2 4 4 4 3 1 2 2 2 1 3 2 2 4 4 2 2 3 1 1 2 5 7 4 4 5 1 9 8 10 10 12 17 24 32 29 29
17 17 17 16 16 16 17 17 18 19 20 20 21 21 22 22 22 21 18 16 14 10 8 7 6 6 6 6 5 7 9 5 2 5 6 8 9 9 8 9 10 8 8 8 8 9 9 8 6 4 4 5 4 4 3 2 2 2 3 2 4 5 4 3 4 5 3 4 6 2 3 6 8 6 2 2 3 4 10 11 11 13 15 16 19 26 28 27
18 18 17 17 16 16 16 17 18 19 19 20 20 21 22 23 23 21 18 16 14 10 8 6 6 6 6 5 4 6 7 3 1 4 4 6 8 8 10 11 10 8 8 8 8 10 11 11 8 5 6 6 3 3 3 5 4 2 4 3 4 6 5 6 7 5 3 3 7 5 5 7 7 3 2 2 3 5 6 10 15 16 17 17 15 22 26 24
19 19 18 17 17 17 17 17 18 19 19 20 20 20 21 22 23 21 18 17 14 11 8 6 6 6 5 4 3 6 5 2 3 6 4 5 5 7 9 9 9 7 7 8 9 8 9 10 5 3 3 4 5 3 3 7 5 2 3 4 6 7 4 6 8 5 3 3 5 4 3 4 3 1 3 4 5 1 2 6 13 17 16 16 15 18 21 21
19 19 19 18 18 17 17 17 18 19 19 20 20 20 21 21 23 22 19 16 15 12 9 7 6 5 5 3 2 5 2 0 5 6 5 4 3 5 7 8 7 6 7 7 6 5 6 4 2 3 2 1 6 6 5 8 6 2 1 5 7 6 4 7 7 5 6 5 5 4 2 2 3 1 2 4 4 2 4 2 7 15 16 17 16 14 14 15
20 20 19 19 19 18 18 18 18 18 19 20 20 20 21 21 23 22 19 17 15 13 10 7 6 6 5 2 1 3 2 3 7 6 4 2 2 4 6 7 7 6 8 7 4 2 3 2 4 3 3 3 5 8 7 9 7 3 2 6 7 4 5 7 6 5 6 6 5 3 1 1 2 1 3 1 2 3 5 3 5 14 17 17 15 12 13 12
19 20 19 20 20 20 19 18 18 18 19 19 20 20 21 21 22 22 20 17 14 12 10 7 6 6 4 1 1 3 0 5 6 5 3 1 1 5 7 6 7 8 9 8 6 3 1 3 6 4 3 5 3 5 7 12 7 5 6 7 7 4 5 7 6 5 5 4 4 4 2 0 1 1 2 3 2 2 2 2 7 15 15 14 13 13 13 12
20 19 19 20 20 20 20 19 18 18 18 19 20 20 20 21 22 22 19 17 13 11 9 6 6 6 4 1 1 2 3 4 4 3 2 3 3 5 7 7 8 9 8 10 11 5 1 3 6 4 2 6 3 5 5 12 6 7 9 8 7 5 6 6 6 5 4 3 3 5 3 1 2 0 1 5 3 2 2 3 5 13 15 13 12 13 13 12
20 19 20 20 21 21 20 19 18 18 18 19 20 20 20 20 21 20 18 16 12 10 9 6 5 5 4 2 2 3 4 6 6 4 4 6 5 4 6 7 9 10 9 10 11 7 5 6 7 4 4 5 3 5 1 7 5 7 9 7 5 4 4 4 5 5 3 2 4 6 4 2 1 0 2 5 3 4 2 4 3 8 14 13 12 12 12 13
20 20 21 21 21 21 20 20 19 19 19 19 20 20 20 20 20 19 17 15 10 8 8 4 5 5 2 2 2 2 5 9 8 6 6 6 4 4 7 9 10 12 12 9 10 10 9 10 8 4 3 2 3 7 3 6 8 10 11 8 3 1 2 2 5 4 2 2 3 5 3 0 3 1 4 4 3 6 4 4 2 4 12 12 12 11 10 10
21 21 22 22 22 21 21 21 20 19 19 20 20 20 20 20 20 18 16 14 10 7 7 4 4 4 2 1 3 5 5 8 9 7 5 5 3 4 6 9 11 12 13 9 9 11 10 12 8 4 3 1 3 5 4 8 9 9 9 6 2 3 1 1 3 2 2 2 3 5 3 1 1 5 6 3 3 6 7 5 2 2 8 9 11 10 7 8
23 23 23 23 23 22 22 21 20 20 20 20 21 20 20 20 20 19 15 12 8 6 6 5 4 3 3 1 5 7 4 4 8 10 8 8 7 7 8 11 13 13 13 12 11 12 13 14 7 3 3 1 2 3 2 5 9 7 3 3 3 4 3 2 2 2 2 2 2 4 1 4 5 8 6 2 4 6 7 6 2 1 1 3 9 10 6 8
24 24 24 25 24 24 23 22 21 21 21 21 21 20 21 21 21 19 14 9 6 4 4 4 3 1 2 3 10 10 6 3 9 13 11 12 14 13 13 14 15 15 13 12 13 11 12 14 8 3 3 1 3 4 4 4 8 6 1 1 4 2 3 1 2 4 3 1 2 4 1 4 4 7 6 2 5 6 6 7 3 1 3 2 6 10 6 8
25 25 25 26 25 25 24 23 22 22 21 22 21 21 21 22 22 18 12 7 4 2 3 3 2 0 2 6 10 7 5 5 10 14 12 13 15 12 14 18 19 16 14 12 10 10 12 11 5 2 2 3 2 4 4 1 4 5 4 0 1 3 3 2 1 6 4 2 3 4 2 4 4 7 6 3 6 6 5 6 4 1 3 2 4 8 7 7
26 26 26 26 26 26 25 24 23 22 22 21 21 20 21 23 23 15 8 4 3 2 1 3 1 1 1 4 6 4 3 7 10 14 13 14 14 11 12 16 17 16 15 13 10 10 10 5 2 1 2 4 1 3 3 3 1 2 4 3 4 4 2 2 3 7 5 4 2 2 1 3 4 5 3 4 6 6 5 5 5 3 2 1 1 4 7 8
27 27 27 27 27 26 26 25 24 23 22 21 21 20 21 24 20 10 4 2 2 3 2 1 1 2 2 5 5 3 6 11 11 11 14 15 13 11 8 6 9 11 11 10 8 6 4 1 1 2 1 2 1 4 4 4 4 3 2 3 4 5 3 1 3 6 6 5 3 3 2 5 5 3 2 3 5 7 5 5 5 3 2 1 1 3 4 8
28 28 28 28 27 27 27 26 25 23 22 21 21 22 22 19 10 1 4 6 5 3 2 1 1 2 3 5 4 5 9 14 11 10 14 14 13 12 9 5 4 4 3 2 3 3 1 1 1 1 3 2 1 4 3 4 4 4 3 4 4 3 5 5 3 6 9 6 5 5 4 8 7 2 3 2 4 7 5 5 4 4 3 2 0 4 1 6
29 29 29 29 28 28 27 27 25 23 22 20 20 21 16 9 4 4 7 8 4 1 2 2 3 2 3 5 7 6 7 11 9 10 12 10 10 11 9 6 2 4 4 1 2 3 3 0 1 0 3 4 4 5 6 8 6 6 6 5 7 5 4 4 1 6 12 7 4 7 6 6 5 5 4 2 3 6 5 5 3 4 5 3 2 4 3 4
30 30 30 29 29 28 27 27 25 23 22 21 20 16 7 4 4 2 2 4 4 5 7 6 5 4 6 4 6 5 4 7 6 9 12 9 7 5 3 2 0 2 3 3 3 2 3 2 2 4 6 7 8 8 10 9 7 7 2 4 8 7 4 3 2 6 11 6 5 8 6 5 5 6 5 4 3 5 5 5 4 4 4 4 2 5 4 1
31 31 30 30 30 28 27 27 25 22 21 20 17 9 1 1 2 2 4 5 7 9 10 11 10 9 12 8 9 10 3 2 4 6 13 13 5 1 2 2 1 1 4 3 2 1 4 3 6 9 9 10 9 8 9 10 7 3 3 5 5 6 4 2 4 7 8 4 4 6 5 7 6 5 5 5 5 5 6 6 5 5 5 3 4 6 2 5
31 31 32 31 30 29 27 27 24 20 16 16 12 3 3 5 4 7 6 6 11 9 8 11 10 10 16 13 13 16 4 1 4 5 10 11 4 3 3 1 2 4 3 2 1 1 1 4 10 11 9 9 11 8 6 6 2 1 3 3 3 4 2 1 3 7 7 2 2 6 6 5 3 3 4 6 5 4 5 6 6 6 6 3 5 7 4 6
32 33 33 31 32 29 27 27 22 14 12 15 10 5 10 14 13 14 6 1 9 10 7 7 6 6 9 9 7 13 5 3 4 5 10 10 4 5 3 0 3 5 2 3 4 3 3 6 11 11 7 5 5 4 1 2 1 1 2 1 2 4 3 1 2 7 7 2 2 6 4 2 2 1 2 4 3 3 4 6 5 5 6 5 6 7 6 6
32 34 33 33 33 29 27 25 14 8 16 17 12 10 18 19 14 12 4 1 5 7 7 7 5 4 8 7 5 9 4 4 5 6 11 10 3 3 4 4 5 5 6 7 9 8 6 8 8 7 4 3 3 4 4 4 3 3 1 2 3 4 5 3 4 7 4 2 1 6 3 4 1 2 3 3 1 3 4 5 5 4 5 7 7 8 4 6
33 34 33 34 32 30 29 18 5 12 21 15 10 14 21 19 17 12 3 1 4 5 6 5 3 3 8 7 5 6 2 1 5 8 11 9 4 2 2 4 4 4 7 7 9 8 8 8 5 4 2 4 5 3 2 3 1 4 2 4 4 7 8 3 9 7 3 3 3 5 2 4 2 3 4 2 1 3 3 4 6 5 5 7 7 8 6 8
34 34 34 34 32 33 25 7 7 20 18 9 9 17 20 19 22 16 3 3 4 4 2 1 1 3 5 4 4 2 4 2 5 8 10 8 5 3 1 2 1 3 5 3 5 3 4 3 1 3 3 4 4 3 4 4 3 2 2 4 3 4 4 8 11 6 3 4 5 6 5 2 2 3 5 3 4 5 3 4 6 5 6 7 7 7 9 10
35 34 34 33 32 32 17 5 14 18 8 7 14 17 17 19 22 14 3 3 4 4 2 1 0 3 5 4 5 5 2 5 3 2 8 8 4 3 1 4 2 4 4 2 2 1 1 1 4 4 5 4 4 2 5 3 7 2 6 3 4 5 6 10 10 6 4 1 2 6 5 2 2 4 4 5 4 5 4 5 6 5 6 6 6 7 8 9
35 35 35 33 32 27 14 9 16 11 5 12 16 14 15 18 17 8 4 2 2 2 2 1 0 3 3 2 5 4 4 5 1 4 6 9 5 4 1 6 3 6 6 3 1 5 2 2 3 5 5 3 2 4 6 2 5 5 7 3 2 3 7 10 8 5 3 2 0 4 4 3 3 3 1 4 3 5 6 7 6 5 6 6 6 6 6 6
35 35 35 34 31 22 12 12 13 7 8 15 15 13 15 15 10 4 5 2 2 2 1 1 1 2 1 0 2 4 3 3 3 5 3 5 5 2 2 7 3 5 7 3 4 6 3 4 6 6 4 2 4 6 5 2 2 5 2 1 3 1 4 6 6 5 1 2 4 7 5 3 2 2 1 2 1 5 6 6 6 6 6 6 6 6 5 5
34 34 34 34 30 18 12 16 12 5 11 15 14 13 12 9 5 5 3 0 3 3 1 1 0 2 4 3 3 2 3 4 4 1 0 1 1 1 2 2 1 2 5 3 1 5 4 2 2 3 4 5 4 4 4 3 4 3 5 4 5 5 3 3 2 3 4 2 6 6 7 5 0 2 2 2 3 5 4 4 4 5 6 6 6 6 6 5
35 33 33 33 27 15 10 11 8 7 12 14 13 10 6 4 4 4 1 3 3 2 1 1 3 1 5 5 3 1 3 4 3 2 2 2 1 2 2 3 2 3 4 5 4 6 4 1 1 2 3 4 2 1 3 3 1 3 4 4 4 5 4 5 5 4 3 4 6 1 6 6 1 3 4 4 5 4 4 5 5 6 7 6 6 6 6 5
35 34 32 29 24 15 10 9 10 11 11 10 10 6 5 4 1 2 3 3 3 2 3 3 4 2 4 6 4 4 3 2 4 3 4 3 2 2 3 3 2 3 4 3 4 6 3 3 4 2 0 2 4 2 4 6 6 5 4 5 4 3 4 4 4 3 1 5 4 2 4 4 1 3 2 4 3 1 2 1 2 5 6 6 6 6 6 5
36 35 32 26 21 19 16 14 12 9 6 6 6 4 6 3 2 4 3 3 2 3 2 3 6 5 4 4 3 5 4 3 6 5 4 5 4 4 3 4 4 4 0 2 1 4 5 2 2 2 3 1 5 4 1 2 4 4 3 4 4 2 3 2 2 2 2 4 3 1 3 3 2 3 6 5 5 4 4 4 3 1 3 5 6 6 6 5
37 34 31 27 22 19 16 14 10 6 4 4 4 5 4 2 4 3 3 4 4 5 3 3 6 4 2 2 3 4 3 3 5 5 2 3 2 3 2 2 3 4 3 1 2 2 3 3 2 2 2 3 3 4 5 4 3 2 3 5 4 3 4 1 2 1 2 4 4 4 3 1 2 4 7 6 6 7 7 6 5 5 4 4 4 5 6 6
36 33 31 26 19 13 9 7 6 5 1 3 6 4 3 4 4 2 3 4 4 4 4 2 2 2 2 3 4 2 3 2 3 2 1 1 2 1 3 3 3 4 4 2 1 1 1 3 5 3 4 5 4 3 5 6 3 1 1 5 3 3 5 2 2 3 2 1 3 4 2 1 1 2 4 3 2 5 6 7 7 7 6 6 4 4 5 6
35 34 26 17 14 9 3 4 9 9 3 5 5 1 4 4 3 2 2 4 3 4 7 6 2 0 3 3 4 4 2 2 2 2 1 1 2 1 2 2 2 4 5 3 0 1 2 3 5 3 2 3 3 3 4 5 2 1 3 3 2 3 6 4 1 1 3 3 2 2 1 3 2 1 3 3 4 4 5 5 6 5 5 5 4 4 5 5
35 30 18 16 17 10 6 7 14 12 4 6 4 4 4 4 4 3 3 5 6 5 4 4 2 1 2 2 4 5 2 2 2 3 1 1 1 1 1 1 0 2 4 5 1 1 2 3 5 4 3 6 2 4 5 4 3 3 3 2 2 2 5 4 2 3 4 3 1 1 2 2 2 0 3 5 5 6 5 4 5 5 5 5 4 4 5 5
30 21 14 16 11 6 9 11 17 11 5 5 2 4 3 3 3 3 5 6 6 6 3 3 3 2 1 2 5 4 2 1 2 1 0 1 0 1 1 2 3 5 3 5 2 1 3 1 5 4 5 7 6 6 5 6 5 5 5 4 3 3 2 2 2 1 2 2 1 2 1 1 2 2 3 3 4 6 6 5 5 5 5 5 6 6 6 5
17 8 6 10 3 10 14 17 15 7 5 3 3 3 3 4 5 6 6 5 4 5 4 3 3 1 3 2 4 3 2 2 3 2 2 1 1 2 0 2 2 6 6 7 4 1 3 3 4 4 6 5 6 5 2 3 5 5 3 3 3 3 3 1 1 3 3 2 1 1 2 3 3 4 4 5 6 6 5 5 5 5 5 4 5 5 5 5
7 1 5 10 2 15 19 16 8 5 3 4 3 3 3 4 6 7 7 6 4 3 4 3 1 1 2 1 2 2 1 3 3 2 2 2 2 1 1 2 3 3 7 9 6 1 3 4 2 5 6 5 3 0 3 4 1 3 4 3 2 1 2 2 1 1 3 3 2 2 1 4 4 3 5 7 7 5 4 5 5 5 5 5 5 5 5 4
4 1 3 6 8 20 19 9 2 3 3 2 2 3 4 4 6 9 10 9 6 5 6 4 1 2 3 1 2 2 1 2 1 2 1 1 3 1 2 0 4 4 5 7 5 2 2 2 1 3 4 3 3 4 3 4 5 5 4 3 3 2 3 3 2 2 1 3 3 3 1 5 4 3 5 6 5 4 5 5 5 5 6 6 7 6 6 6
1 1 5 4 4 8 9 4 2 2 2 2 3 4 4 4 6 9 10 10 7 6 5 3 2 2 2 2 2 1 1 1 1 2 1 1 4 3 3 3 5 7 5 3 1 1 2 3 3 1 2 3 7 7 4 3 6 6 3 3 4 3 5 5 1 2 1 1 1 2 1 5 4 3 4 5 4 5 4 3 4 5 6 6 7 8 7 7
1 4 11 9 4 2 2 1 3 2 2 4 4 5 5 4 6 7 8 9 7 4 3 2 2 1 1 2 1 2 3 1 3 3 1 1 3 4 5 5 7 7 5 2 1 1 2 3 3 2 4 5 7 7 5 4 5 5 2 1 4 3 4 5 4 3 1 1 0 2 0 5 4 2 4 4 4 4 3 3 4 4 5 6 7 8 7 7
2 4 8 9 5 3 3 2 2 3 4 4 5 6 6 5 6 8 9 8 6 3 2 3 2 2 2 1 2 1 1 0 3 3 2 1 1 3 2 7 8 5 3 2 2 1 1 1 3 3 4 6 7 7 6 6 4 2 3 2 4 5 5 4 2 3 1 2 3 4 2 5 4 2 3 4 5 3 2 3 4 3 5 6 6 7 7 6
4 2 4 9 7 2 4 4 3 3 4 4 6 7 5 5 6 8 9 9 8 5 3 3 2 3 2 1 0 1 2 3 1 1 2 1 0 2 2 6 7 5 4 6 6 4 2 2 4 4 3 1 1 2 2 3 3 2 3 1 5 7 7 4 2 4 1 3 3 5 4 5 4 3 4 4 4 3 2 3 4 3 4 5 5 6 6 5
3 1 3 6 5 1 2 3 0 1 3 4 6 6 5 5 6 6 7 8 9 6 4 3 2 2 1 1 0 2 2 2 2 1 2 3 2 2 4 7 7 6 7 10 8 4 3 2 3 6 6 5 6 6 5 2 2 5 5 1 5 6 5 6 4 2 3 2 1 2 5 3 4 5 4 3 3 3 3 4 4 4 4 4 4 5 6 6
1 1 2 3 4 3 4 4 4 4 5 4 4 5 6 6 5 5 5 5 8 7 3 2 3 2 3 3 1 2 4 1 2 2 2 3 3 2 3 5 6 8 9 8 6 5 4 2 1 6 6 6 7 7 6 3 3 4 5 3 5 6 6 6 3 4 4 5 1 5 4 6 6 6 4 3 3 3 3 3 4 4 4 3 3 4 6 6
1 2 2 3 2 2 3 5 7 7 8 6 4 6 8 8 7 5 4 6 7 4 2 2 3 4 5 5 3 1 3 2 0 2 1 1 2 3 4 4 1 6 7 5 3 5 6 1 4 5 4 5 5 6 6 3 3 3 2 3 4 6 7 6 4 5 5 5 4 6 5 6 6 5 4 4 4 3 3 4 4 4 4 3 3 4 6 7
2 2 3 4 2 2 3 7 8 8 8 7 4 5 6 7 8 6 5 6 7 3 3 4 5 5 6 5 5 2 2 1 2 2 1 1 2 4 2 1 3 1 4 4 1 2 5 2 5 3 1 4 5 5 4 4 4 5 2 2 3 5 8 8 6 6 7 6 5 6 6 4 5 4 5 5 4 3 3 2 2 3 4 4 3 4 5 6
2 2 3 3 3 4 4 6 6 6 6 5 3 5 5 5 6 7 5 4 5 4 1 1 3 5 6 3 5 3 6 7 5 4 4 3 0 2 3 3 3 1 3 4 1 2 3 2 3 2 3 5 6 3 4 5 3 3 4 4 5 6 6 5 4 5 7 6 5 7 6 3 4 3 4 4 2 1 2 2 2 3 4 3 3 4 4 4
4 5 4 2 3 3 3 4 4 4 5 3 3 5 6 6 8 10 9 5 3 2 1 1 5 7 6 3 4 0 6 5 6 7 8 7 4 4 4 4 6 5 3 3 1 2 3 1 0 5 4 4 5 4 5 4 5 5 4 3 5 7 5 2 2 3 5 7 6 5 3 4 4 3 2 2 1 4 3 2 3 4 5 3 4 3 3 4
8 7 5 2 3 3 3 3 4 4 3 3 6 9 8 8 9 9 7 5 4 4 1 2 5 6 6 6 3 3 9 8 6 4 5 7 6 6 5 5 8 7 5 4 2 3 4 3 2 4 3 4 5 3 3 3 6 4 4 3 5 7 7 5 4 3 3 6 6 4 3 5 4 4 3 2 2 4 2 2 3 4 5 4 3 3 3 3
Wind_Direction
4 360 354 352 350 347 344 342 342 342 344 346 346 347 346 347 346 346 345 345 345 339 336 331 335 343 340 338 334 332 331 326 243 227 230 215 191 203 266 254 237 242 227 231 237 225 234 241 243 240 222 206 186 162 182 184 168 90 79 68 70 295 210 176 178 183 150 170 225 204 105 111 280 285 279 302 44 147 161 154 144 128 124 130 134 146 152 152
3 359 354 351 348 344 342 340 340 341 343 344 346 346 346 347 347 349 347 347 347 342 343 338 344 347 340 343 340 338 337 329 300 263 224 195 185 212 249 253 246 244 228 228 228 201 193 227 232 230 203 201 189 171 186 196 170 112 108 102 186 220 182 170 166 170 168 155 174 140 103 175 234 260 299 24 348 162 142 134 132 124 119 121 134 146 151 152
3 360 355 353 348 344 341 338 339 340 342 343 345 346 348 349 349 350 349 352 352 349 352 348 349 347 346 347 347 349 341 340 319 273 224 200 213 227 238 250 245 239 231 231 230 206 209 234 249 234 193 217 205 162 183 189 192 170 115 132 222 201 158 180 186 183 201 158 146 152 191 211 245 261 347 15 336 87 127 135 134 132 132 134 139 148 152 153
3 1 357 354 349 344 341 339 339 339 340 341 343 347 349 349 349 350 351 355 357 357 358 354 352 352 356 349 353 355 344 3 292 259 230 221 230 231 233 242 235 229 229 231 234 221 236 261 269 243 201 209 181 135 179 181 185 173 148 173 205 183 158 183 196 205 216 169 158 165 189 212 252 276 37 66 71 73 117 137 141 142 141 144 142 148 155 155
3 1 359 357 353 348 344 341 339 338 339 339 341 346 350 350 349 351 352 356 360 2 1 359 359 360 2 354 357 349 356 44 272 247 238 240 237 228 225 227 218 218 224 229 234 239 265 270 266 254 214 178 145 141 205 192 179 148 183 167 163 179 160 169 186 194 177 141 160 153 186 231 286 339 47 86 99 78 174 133 139 142 143 148 145 149 153 153
2 0 359 358 355 351 346 343 339 338 338 337 340 345 350 351 350 350 351 355 359 3 5 8 11 11 358 356 1 345 22 92 263 241 243 250 245 222 211 210 202 208 218 224 236 264 284 272 311 307 284 136 155 184 199 187 182 147 178 140 158 195 153 154 172 175 162 147 162 152 196 260 360 31 60 89 116 160 168 165 152 143 145 147 144 150 149 151
0 359 358 358 357 354 348 344 339 337 336 335 337 343 348 350 352 350 349 353 358 1 5 10 18 14 356 10 25 10 88 249 254 236 249 253 241 207 189 196 188 194 209 213 222 246 286 309 320 272 265 277 183 208 197 170 189 175 129 151 169 191 142 145 156 160 162 159 164 130 98 343 7 83 29 11 180 155 155 214 190 147 145 148 144 152 153 157
358 356 355 357 356 353 349 344 340 337 334 334 335 340 345 349 352 350 347 351 356 0 3 7 13 10 4 26 21 14 357 252 236 212 229 214 214 181 168 177 180 191 200 216 223 202 299 283 258 224 253 266 221 260 191 151 185 189 149 163 161 142 131 131 132 145 144 140 136 106 93 262 237 142 10 268 179 123 152 176 172 151 146 152 152 157 160 168
356 353 354 355 353 352 349 344 340 335 333 332 332 337 343 347 351 350 345 346 354 2 3 6 2 4 9 344 86 11 280 224 178 172 164 134 129 153 165 167 176 190 205 241 239 218 222 244 247 229 268 272 305 335 153 145 187 187 156 159 151 135 139 133 131 143 137 135 138 125 130 194 239 183 286 250 158 95 360 51 147 156 152 159 161 163 169 175
355 354 354 352 351 350 347 344 339 334 331 329 329 332 339 344 348 347 342 342 350 0 2 13 3 5 16 3 70 4 265 187 167 166 136 133 128 143 173 177 185 196 216 251 245 220 211 239 271 271 267 278 315 345 128 159 174 152 134 122 126 138 147 141 132 139 133 146 160 142 150 191 323 40 253 271 167 136 42 53 82 162 163 165 169 171 171 179
359 357 355 351 349 347 345 344 338 333 329 326 327 329 334 339 342 343 340 337 343 359 2 9 11 13 26 64 92 285 227 185 188 176 142 144 156 190 192 193 203 210 224 250 260 247 242 263 295 316 258 291 330 331 17 126 129 127 120 91 52 64 117 128 121 138 145 147 176 132 119 58 17 197 220 259 185 132 109 111 76 186 179 172 171 173 173 180
2 360 357 354 350 346 345 342 338 333 327 324 325 325 330 335 337 338 336 333 334 356 5 357 16 29 26 88 202 254 229 205 207 183 174 184 187 222 214 217 220 223 229 236 268 278 290 299 326 360 268 342 332 319 61 116 125 124 121 107 9 358 17 197 111 141 164 141 179 127 71 298 196 226 231 227 170 121 110 123 83 196 184 179 169 165 177 167
2 0 359 356 352 348 343 341 337 331 326 323 322 322 326 330 331 332 332 332 327 348 8 356 358 23 30 317 259 284 292 240 202 185 201 214 221 239 241 246 240 238 234 237 272 292 300 299 313 322 269 343 282 279 64 123 130 121 108 122 98 23 309 242 106 132 142 113 160 129 55 263 220 235 245 178 143 123 108 114 89 304 144 178 169 158 172 150
2 0 359 357 354 350 344 340 336 330 325 321 320 321 323 325 326 326 328 328 317 333 1 347 327 16 72 269 284 298 287 231 187 193 210 219 226 238 246 250 246 240 232 239 267 279 286 293 307 302 262 207 244 315 6 114 131 123 83 34 106 113 260 264 119 148 131 112 122 110 178 258 248 247 247 185 140 129 113 119 135 265 37 357 178 157 154 145
1 359 358 356 354 351 346 340 335 330 325 320 319 320 321 322 320 321 324 315 289 281 344 347 307 348 29 291 294 302 259 217 200 207 217 222 222 235 252 247 239 232 225 230 252 266 280 299 324 312 277 283 285 345 347 111 133 138 140 307 139 187 255 334 201 181 151 119 119 112 188 262 263 252 239 167 133 123 121 128 132 145 57 1 189 153 145 146
358 357 356 354 353 352 348 342 335 330 325 322 320 319 322 319 315 318 315 291 250 224 45 52 71 62 16 292 300 316 238 222 220 216 219 227 223 232 255 245 230 223 224 229 238 255 273 303 325 221 256 302 5 57 2 13 13 177 155 178 191 195 258 337 244 206 166 108 136 157 202 272 271 258 222 143 131 122 124 133 128 135 114 98 181 131 145 148
356 355 353 352 351 351 349 344 337 330 326 323 320 319 321 317 313 313 287 208 168 202 173 94 22 26 269 277 302 283 224 226 232 216 216 230 233 243 263 243 218 214 219 228 232 241 265 322 262 259 311 320 92 95 49 339 291 262 167 151 194 190 166 191 229 202 162 128 180 203 219 261 284 287 180 141 129 124 131 145 139 140 137 210 103 92 149 153
354 352 351 350 349 349 348 345 338 332 326 322 324 323 321 321 323 330 143 132 128 156 164 286 14 56 264 259 256 236 217 219 222 203 210 229 241 254 258 239 218 184 172 241 245 207 202 317 160 314 336 319 241 112 122 231 222 235 216 151 170 181 179 207 208 170 161 153 176 177 223 258 278 272 176 170 137 130 144 152 145 139 131 264 186 82 91 154
353 351 350 348 347 346 347 345 340 332 325 321 327 327 324 342 38 105 129 129 114 4 274 239 156 159 270 241 230 236 206 196 194 198 215 227 230 245 253 247 232 135 124 105 253 206 173 345 49 156 273 257 231 182 196 223 214 241 252 163 156 168 209 217 167 161 158 150 182 177 209 245 241 217 189 193 152 131 142 141 137 143 142 221 198 70 28 152
352 350 348 347 345 344 345 344 339 332 325 324 332 338 340 7 25 52 148 167 200 228 246 235 191 224 279 258 211 214 189 177 180 205 224 226 209 234 273 255 349 115 171 175 219 236 147 154 249 217 227 235 228 212 216 237 249 251 248 125 159 175 217 209 140 176 155 143 210 189 200 232 213 206 188 172 153 138 148 145 150 158 155 196 144 66 11 297
350 349 348 346 343 342 343 342 337 329 323 325 336 353 32 314 357 330 302 289 257 225 229 235 211 223 262 258 180 172 165 195 213 227 237 237 202 153 286 198 106 267 232 203 227 275 113 168 238 228 227 234 238 235 231 239 253 261 90 104 158 181 223 220 151 174 156 140 216 177 188 235 223 203 183 160 162 176 171 157 165 164 157 178 110 96 309 299
350 349 347 345 342 340 341 340 335 325 324 333 343 1 246 282 304 310 308 308 295 270 240 241 224 224 252 256 190 171 143 210 254 275 236 226 166 144 262 142 152 245 228 150 225 289 128 227 242 234 227 231 243 241 221 223 224 35 50 88 165 196 206 28 121 162 161 156 229 174 184 241 247 190 182 174 171 191 186 167 168 159 156 156 107 129 227 274
350 347 346 345 341 338 339 339 331 325 344 347 331 296 311 318 314 312 307 248 293 287 262 238 224 213 235 261 195 166 151 187 226 259 205 188 162 183 201 248 241 264 258 160 179 194 197 239 246 240 225 199 228 244 112 59 357 340 59 74 239 215 166 126 175 168 171 186 154 154 166 314 353 82 203 205 177 165 189 180 170 167 161 148 125 148 213 258
349 347 347 344 340 338 338 336 329 342 354 339 310 315 342 345 334 319 309 194 286 279 266 233 215 198 204 233 193 163 175 187 183 222 199 175 163 186 177 210 224 247 251 212 189 191 215 239 232 218 208 128 89 340 16 58 331 321 64 243 246 203 199 196 148 147 157 299 98 112 71 335 353 167 245 257 197 162 185 183 178 183 158 148 155 151 187 262
349 347 345 345 341 336 336 335 338 349 342 325 299 328 345 348 343 338 351 13 304 274 275 245 211 194 194 192 175 171 181 204 189 198 194 186 180 166 189 219 206 239 257 213 177 195 240 250 216 162 112 64 70 342 305 151 277 335 336 255 228 205 221 148 104 107 99 280 237 128 109 297 271 209 235 260 214 205 204 190 190 192 163 163 178 153 165 234
348 347 345 345 341 337 339 344 341 340 333 313 311 327 335 341 344 348 44 57 313 270 270 230 160 182 187 170 162 122 48 295 229 181 180 206 216 162 216 281 256 257 267 212 163 196 254 272 62 118 103 59 49 346 275 178 126 20 271 242 156 163 183 122 116 120 141 228 227 169 160 269 294 244 232 202 193 217 231 210 204 201 180 176 188 168 176 209
346 346 344 344 342 341 343 320 327 335 322 316 332 332 336 343 345 349 51 47 317 264 237 268 356 172 189 190 159 103 57 250 264 188 183 199 211 122 153 279 310 278 281 56 54 282 239 15 42 77 82 67 57 330 266 159 115 185 248 229 103 92 119 138 143 159 186 204 208 178 145 85 292 262 221 173 185 228 239 227 220 214 202 188 192 187 186 196
343 345 343 341 341 339 330 308 322 331 314 333 347 347 342 342 344 3 83 57 295 267 237 235 143 175 196 194 152 140 213 207 164 279 214 181 188 106 144 256 259 271 276 92 106 265 225 156 151 114 77 79 151 238 256 122 117 221 227 210 207 145 149 157 161 185 202 61 17 209 135 102 271 287 210 155 185 240 233 228 224 218 218 206 200 201 194 191
340 342 341 338 338 335 323 310 308 310 331 346 358 349 338 340 351 56 81 69 223 254 252 134 94 217 216 83 192 188 196 167 174 256 220 169 207 121 173 238 228 275 283 122 165 254 243 185 177 137 110 177 209 240 255 129 180 241 206 116 301 292 141 143 158 178 91 42 254 227 166 146 262 283 190 139 209 251 241 235 229 221 223 217 214 211 201 194
337 339 339 336 334 331 316 306 298 318 349 351 351 340 336 347 33 72 42 297 228 253 236 98 217 185 143 148 249 217 159 195 209 236 52 163 261 30 203 237 91 337 321 6 231 255 250 212 184 142 151 184 202 237 246 209 221 294 22 31 358 352 20 69 121 112 69 323 265 225 165 143 258 254 204 166 218 232 221 233 235 230 231 222 223 219 205 201
333 335 335 333 328 319 303 300 306 332 335 339 343 345 359 16 66 92 223 245 265 267 163 220 264 167 146 173 240 252 155 216 226 159 199 213 36 354 319 350 19 27 1 344 315 286 269 170 262 244 174 159 140 308 304 322 2 45 42 46 30 348 1 21 5 45 87 262 284 225 138 125 131 255 218 211 252 244 195 208 215 216 227 221 222 224 211 201
331 331 331 329 321 304 274 280 310 315 313 333 348 5 58 43 14 180 240 291 296 225 192 209 217 204 190 188 213 220 174 216 232 182 173 192 196 207 200 202 186 42 353 295 292 303 294 187 206 230 186 130 105 36 333 359 33 67 65 64 62 355 4 23 344 7 177 248 293 30 94 87 282 267 220 200 250 302 143 181 227 221 229 225 226 230 221 209
329 328 327 325 315 296 277 284 304 304 310 352 4 40 81 77 238 217 238 296 262 226 242 208 193 191 187 184 223 213 180 202 216 199 181 177 195 230 223 205 163 108 196 240 309 339 352 331 209 93 350 319 112 104 322 350 40 67 85 98 98 60 48 31 313 352 306 266 297 5 65 36 303 335 13 360 336 5 44 36 16 336 270 247 239 236 232 226
327 327 326 321 308 294 281 281 283 278 317 10 44 64 81 155 237 237 230 254 262 256 258 212 197 202 189 201 224 183 170 234 204 177 183 138 142 263 237 178 163 139 135 64 26 29 33 331 264 145 256 236 148 153 165 149 86 93 155 125 109 130 128 168 220 127 275 278 322 359 47 23 301 12 12 346 329 352 8 358 4 19 358 315 278 252 241 237
327 325 325 318 303 293 283 265 231 216 272 44 64 77 149 211 245 238 226 258 290 293 296 301 170 216 293 275 255 197 147 228 216 158 221 144 142 208 140 155 196 143 104 73 10 31 70 257 246 242 226 185 177 196 146 109 62 287 153 95 89 174 142 143 195 174 197 273 349 5 46 248 232 9 339 333 12 5 356 344 352 3 356 356 344 303 273 250
329 328 329 314 291 282 263 193 173 171 152 79 75 145 205 222 232 202 238 277 309 325 325 340 37 74 307 317 289 269 121 128 211 209 272 190 151 159 137 193 211 124 113 125 149 356 22 281 270 308 308 204 187 184 121 109 151 295 46 90 216 181 121 114 265 335 58 74 14 22 59 315 331 15 305 351 17 347 345 348 340 335 337 354 355 331 318 292
331 332 323 294 286 269 226 177 162 159 111 86 124 217 227 234 232 229 284 300 306 316 327 328 336 210 250 306 279 249 139 78 216 205 272 338 16 261 170 181 218 101 131 132 141 223 117 298 297 33 14 295 308 81 74 74 119 103 86 171 225 49 76 95 80 5 34 75 8 33 102 303 334 330 300 349 351 318 322 328 313 322 338 345 337 321 320 322
328 326 304 293 291 213 194 176 160 150 85 84 175 243 235 241 262 280 293 303 310 315 324 290 257 226 194 343 295 265 122 99 242 168 95 4 325 269 111 86 7 10 61 106 80 286 109 348 304 26 29 320 350 59 48 7 38 93 130 155 104 64 36 35 80 75 62 90 11 333 317 239 194 224 286 318 305 289 298 306 310 327 340 337 325 320 324 332
327 325 307 320 353 155 170 165 153 115 68 118 218 249 235 255 268 271 279 295 300 291 282 242 210 3 16 6 294 298 102 180 217 134 130 126 143 253 159 124 32 12 41 88 91 308 73 78 288 334 14 357 6 47 66 348 10 48 70 61 69 120 148 124 130 144 131 132 178 212 291 277 227 215 230 244 254 262 284 306 316 316 324 327 310 313 324 326
342 330 303 329 35 155 157 152 134 67 86 175 207 231 272 287 275 275 282 287 285 263 258 242 171 34 321 305 287 278 214 210 201 161 152 113 109 262 344 103 129 79 69 79 81 33 53 64 294 313 355 16 16 52 180 186 114 60 55 49 43 57 89 91 54 114 128 132 149 152 248 269 249 209 208 233 254 264 272 290 302 308 319 322 306 306 309 304
348 345 301 8 107 151 150 134 94 97 148 226 223 231 277 281 278 292 291 284 276 247 236 235 230 210 202 241 286 262 261 258 189 128 98 108 119 94 339 328 146 129 83 61 55 61 83 66 356 338 357 354 283 272 243 178 152 130 127 147 155 125 85 78 4 318 104 124 160 164 214 268 258 201 208 234 259 268 262 273 297 317 321 318 311 311 309 303
359 331 274 357 75 155 140 111 258 179 162 230 219 230 260 258 270 289 290 289 286 261 242 221 220 231 193 201 243 310 335 295 78 72 61 142 133 144 222 208 118 104 92 61 36 146 133 100 63 359 291 262 271 297 353 98 132 125 126 150 146 122 110 115 163 263 319 43 172 131 147 264 263 198 205 235 253 259 272 304 323 321 316 315 317 318 318 311
70 299 281 300 308 228 113 61 281 279 228 236 238 241 244 248 267 277 278 284 283 272 267 234 197 203 205 183 119 9 335 334 72 82 62 70 117 179 195 133 93 84 87 75 318 331 82 81 63 324 304 304 301 322 12 48 81 77 33 123 135 138 132 141 165 171 149 280 68 69 9 267 278 228 205 236 262 271 312 346 332 319 317 320 321 322 324 319
312 279 282 308 308 218 209 233 244 260 263 267 266 257 249 247 254 261 265 269 270 259 249 257 222 180 226 211 142 181 251 51 70 99 119 91 181 234 143 103 98 91 107 163 179 126 71 77 84 52 356 349 343 349 359 353 23 60 302 290 138 130 106 104 112 94 88 231 159 120 228 258 268 226 210 246 265 272 319 337 322 324 329 326 328 327 323 321
314 253 257 309 320 197 196 204 189 235 277 297 284 275 273 266 257 257 261 264 261 239 200 251 246 168 212 260 92 216 171 156 166 109 107 134 219 334 54 110 113 106 147 166 147 120 130 140 110 106 108 95 329 300 283 298 331 343 315 340 128 131 124 126 102 84 116 238 138 131 205 255 282 255 236 257 273 299 337 342 329 324 328 327 333 333 328 334
351 342 278 314 337 22 269 275 276 280 295 309 297 279 265 270 278 275 271 270 262 235 189 226 234 138 227 239 96 269 229 172 157 140 152 170 193 222 171 146 124 130 161 153 127 94 90 104 118 135 150 177 197 219 230 230 306 309 300 241 142 142 136 117 94 124 179 158 79 187 188 194 263 256 240 263 301 325 329 333 329 325 333 337 339 334 335 352
64 327 332 345 328 346 354 342 4 355 313 311 303 278 273 279 288 291 285 277 257 233 204 231 220 186 226 211 178 278 269 255 126 148 190 189 189 191 138 115 121 151 158 137 116 97 83 37 195 148 170 207 203 222 253 256 244 265 274 238 166 147 130 107 118 196 155 98 320 256 183 165 223 237 214 230 267 292 302 307 312 318 327 332 338 336 340 358
279 288 360 24 319 327 1 322 323 324 310 311 297 274 273 271 274 285 291 295 284 243 186 267 245 215 209 190 157 273 285 303 246 181 219 202 116 82 46 25 163 167 144 111 104 107 101 181 218 171 207 242 221 237 262 265 251 259 249 217 187 144 124 118 154 177 130 121 216 228 172 174 217 228 210 220 229 225 242 267 289 313 326 332 355 357 352 357
327 310 343 15 335 279 281 289 303 310 307 311 297 273 271 266 269 269 255 284 303 273 190 216 242 242 233 189 137 144 217 230 278 257 198 128 90 103 95 327 265 211 111 117 155 97 99 199 228 183 248 292 277 270 297 345 327 315 340 126 134 119 119 125 147 148 121 134 173 156 146 192 229 207 201 220 219 205 218 271 313 327 330 341 14 18 2 353
356 321 331 349 304 274 274 291 313 316 307 307 282 269 286 291 302 310 289 266 292 300 262 240 298 298 273 231 128 174 220 184 187 224 187 158 356 162 159 176 214 252 90 128 188 58 102 213 244 119 47 314 297 310 1 21 31 7 2 42 83 91 94 99 115 116 103 113 137 126 130 226 255 192 194 228 226 100 47 360 329 320 323 346 27 25 359 347
332 306 320 326 278 287 297 298 321 325 303 298 290 296 312 326 342 342 323 281 265 327 74 75 14 1 320 301 110 16 282 226 204 225 199 179 195 196 186 185 177 163 135 143 147 96 118 175 290 76 64 294 297 350 350 2 67 56 358 15 82 86 84 79 89 118 125 130 130 117 134 235 237 180 199 254 78 69 42 332 315 319 323 349 33 19 346 345
347 326 330 321 257 296 327 309 320 321 281 298 328 327 323 326 344 355 334 307 342 9 68 116 61 37 358 357 48 340 304 277 257 275 227 197 184 171 175 174 166 159 150 149 149 148 137 130 132 100 99 258 283 351 341 1 50 25 287 218 128 107 109 105 75 61 112 134 141 161 205 219 189 158 197 229 92 79 61 338 315 307 311 339 14 347 323 352